Regional Weather Roundup
Issued by NWS Northern Indiana

Home | Current Version | Previous Version | Text Only | Print | Product List | Glossary Off
Versions: 1 2 3 4 5 6 7 8 9 10 11 12 13 14 15 16 17 18 19 20 21 22 23 24 25 26 27 28 29 30 31 32 33 34 35 36 37 38 39 40 41 42 43 44 45 46 47 48 49 50

000
ASUS43 KIWX 240200
RWRIWX

KIWX WEATHER ROUNDUP
NATIONAL WEATHER SERVICE NORTHERN INDIANA
1000 PM EDT SUN JUL 23 2017

NOTE: "FAIR" INDICATES FEW OR NO CLOUDS BELOW 12,000 FEET WITH NO
SIGNIFICANT WEATHER AND/OR OBSTRUCTIONS TO VISIBILITY.

* THESE STATIONS ARE NOT UNDER NWS QUALITY CONTROL. THEY ALSO MAY NOT
  REPORT WEATHER SUCH AS PRECIPITATION OR FOG.

INZ001>027-240300-
NORTHERN INDIANA

CITY           SKY/WX    TMP DP  RH WIND       PRES   REMARKS
GARY*          PTCLDY    75  66  73 N3        29.82S
SOUTH BEND     PTCLDY    72  65  78 N5        29.82S
GOSHEN         CLOUDY    77  57  50 N12       29.81R
MONTICELLO*    CLOUDY    78  69  73 NW14      29.79R
FORT WAYNE     PTCLDY    75  70  84 NE5       29.77F

$$
INZ028>050-240300-
CENTRAL INDIANA

CITY           SKY/WX    TMP DP  RH WIND       PRES   REMARKS
LAFAYETTE      CLOUDY    77  69  76 NW16G26   29.79F
KOKOMO*        FOG       75  72  90 MISG        N/A  VSB 3/4
MUNCIE*        CLEAR     74  67  78 SW5       29.81F
INDIANAPOLIS   PTCLDY    75  72  90 SW6       29.83R

$$
MIZ043>046-050>051-056>058-064>065-071>073-077>080-240300-
SOUTHWEST LOWER MICHIGAN

CITY           SKY/WX    TMP DP  RH WIND       PRES   REMARKS
BATTLE CREEK   CLOUDY    75  65  70 NW8       29.80R
BENTON HARBOR  CLOUDY    73  68  84 CALM      29.81R
COLDWATER*     MOCLDY    72  67  86 CALM      29.79S
HILLSDALE*     CLOUDY    72  64  78 NW3       29.79R
HOLLAND        CLEAR     71  67  87 NW6       29.82R
KALAMAZOO      MOCLDY    76  62  62 NW8       29.80R
STURGIS*       MOCLDY    74  66  77 NW5       29.80R
THREE RIVERS*  MOCLDY    74  65  74 W7        29.81R

$$
OHZ001>008-015>018-024>025-240300-
NORTHWEST OHIO

CITY           SKY/WX    TMP DP  RH WIND       PRES   REMARKS
DEFIANCE       CLEAR    N/A N/A N/A CALM      29.78R
FINDLAY        CLEAR     70  64  81 CALM      29.79R
TOLEDO EXPRESS CLEAR     70  70 100 CALM      29.77R
TOLEDO METCALF CLEAR     73  70  90 SW3       29.78R
LIMA           PTCLDY    69  67  93 E3        29.81R

$$
AND FOR LAKE MICHIGAN COASTAL AND OPEN LAKE BUOY OBSERVATIONS

STATION/POSITION TEMP    WIND        PRES    VSBY  WAVE
                 AIR SEA DIR/SP/G                  HT/PER
                 (F)     (DEG/KT/KT) (MB)    (MI)  (FT/S)
CALUMET HARBOR    75     300/  3/  4 1009.4S
MICHIGAN CITY     74      10/ 11/ 11   N/A
BURNS HARBOR      76     340/  7/  9 1010.2S
SAINT JOSEPH      75      10/  5/  7 1010.2
SOUTH LAKE BUOY   72 71   20/ 10/ 12 1009.2          0
4 MI NW BRIDGMAN  74 75   40/  6/  8 1009.2R         1/ 3
MICHIGAN CITY     75 75   10/  8/ 10   N/A           1/ 2

$$
&&



USA.gov is the U.S. government's official web portal to all federal, state and local government web resources and services.